Location: *
(46.0770°N, 1.6444°E)
Time: 09:25:15
(UTC+00:00)

CZ-2C R/B - Pass Details

Date: 18 December 2019
Orbit: 785 x 870 km, 98.3° (Epoch: 25 January)

Event Time Altitude Azimuth Distance (km) Brightness Sun altitude
Rises 06:52:46 0° 143° (SE) 3,305 7.1 -6.5°
Reaches altitude 10° 06:55:13 10° 137° (SE) 2,368 6.5 -6.1°
Maximum altitude 07:00:04 41° 68° (ENE) 1,137 3.8 -5.4°
Drops below altitude 10° 07:04:54 10° 360° (N) 2,357 4.7 -4.6°
Sets 07:07:20 0° 353° (N) 3,288 5.4 -4.3°
